EDT,Max TemperatureF,Mean TemperatureF,Min TemperatureF,Max Dew PointF,MeanDew PointF,Min DewpointF,Max Humidity, Mean Humidity, Min Humidity, Max Sea Level PressureIn, Mean Sea Level PressureIn, Min Sea Level PressureIn, Max VisibilityMiles, Mean VisibilityMiles, Min VisibilityMiles, Max Wind SpeedMPH, Mean Wind SpeedMPH, Max Gust SpeedMPH,PrecipitationIn, CloudCover, Events, WindDirDegrees
2013-5-1,85,69,53,58,54,49,83,58,32,30.14,30.09,30.02,10,10,10,14,4,18,0.00,0,,133
2013-5-2,77,69,61,56,53,52,73,57,40,30.17,30.10,30.04,10,10,10,14,9,20,0.00,0,,133
2013-5-3,79,69,59,59,54,42,80,60,39,30.04,29.96,29.89,10,10,10,22,10,26,0.00,3,,128
2013-5-4,71,64,56,53,45,39,77,57,37,30.00,29.94,29.92,10,10,10,17,9,23,T,4,Rain,141
2013-5-5,60,58,55,53,50,47,86,79,72,30.00,29.93,29.91,10,9,5,22,10,28,0.06,8,Rain,76
2013-5-6,69,62,55,57,54,48,86,75,63,29.96,29.91,29.87,10,10,6,18,11,24,0.19,7,Rain,76
2013-5-7,74,66,57,57,54,52,86,68,49,29.98,29.95,29.91,10,10,10,13,5,17,T,6,,35
2013-5-8,79,67,55,59,55,50,93,65,37,30.00,29.97,29.93,10,8,2,18,5,22,T,4,Rain-Thunderstorm,349
2013-5-9,82,69,56,60,56,52,90,63,36,30.00,29.96,29.88,10,9,2,36,6,47,0.53,5,Rain-Thunderstorm,211
2013-5-10,69,61,52,63,60,49,93,87,80,29.90,29.84,29.79,10,7,2,17,8,23,0.17,6,Rain-Thunderstorm,229
2013-5-11,64,55,45,51,46,39,86,65,43,30.02,29.92,29.87,10,9,4,24,10,30,0.00,6,,300
2013-5-12,58,49,40,38,32,26,82,57,32,30.11,30.07,30.03,10,10,10,23,10,31,0.00,3,,284
2013-5-13,64,51,38,40,33,27,85,55,25,30.19,30.13,30.10,10,10,10,18,6,25,0.00,1,,270
2013-5-14,85,68,51,59,48,37,68,53,37,30.10,29.93,29.79,10,10,10,24,13,31,T,2,,193
2013-5-15,89,76,63,59,57,54,78,57,36,29.86,29.82,29.79,10,10,10,25,15,33,0.00,0,,230
2013-5-16,81,73,64,64,62,56,87,65,42,29.95,29.88,29.82,10,10,2,22,8,28,0.28,4,Rain-Thunderstorm,219
2013-5-17,85,74,63,65,62,60,93,70,46,30.02,29.99,29.96,10,7,2,26,5,36,0.03,6,Rain-Thunderstorm,166
2013-5-18,83,74,65,66,64,62,93,72,51,30.05,30.00,29.94,10,6,2,15,5,18,T,7,Rain,81
2013-5-19,87,75,62,66,63,60,93,69,45,29.99,29.94,29.84,10,5,0,13,5,16,0.00,3,Fog,137
2013-5-20,87,79,71,70,67,64,90,69,48,29.96,29.89,29.82,10,9,6,23,13,28,0.00,3,,190
2013-5-21,85,75,64,66,63,60,87,66,44,29.91,29.82,29.76,10,9,4,36,13,48,0.16,2,Rain,201
2013-5-22,77,70,63,65,62,57,90,70,50,29.78,29.76,29.70,10,9,2,26,13,43,0.24,6,Rain-Thunderstorm,196
2013-5-23,66,59,51,60,54,46,90,79,67,30.13,29.92,29.78,10,9,2,22,12,28,0.01,8,Rain,283
2013-5-24,67,58,49,46,42,34,86,58,29,30.35,30.26,30.13,10,10,10,17,7,22,0.00,4,,347
2013-5-25,68,57,46,48,42,36,80,56,32,30.36,30.30,30.19,10,10,10,10,4,13,T,4,Rain,315
2013-5-26,71,63,55,53,46,39,83,61,39,30.29,30.23,30.16,10,10,10,13,6,18,T,6,Rain,127
2013-5-27,83,71,58,66,58,53,86,69,51,30.18,30.03,29.88,10,9,4,23,12,31,0.44,5,Rain-Thunderstorm,149
2013-5-28,85,76,66,67,63,61,81,66,51,29.96,29.92,29.88,10,10,10,30,14,37,0.00,2,,200
2013-5-29,88,78,68,63,60,58,70,55,39,30.02,29.99,29.94,10,10,10,22,12,28,0.00,1,,199
2013-5-30,89,81,72,68,65,62,79,62,44,30.06,30.00,29.95,10,10,2,25,14,32,0.09,1,Rain-Thunderstorm,177
2013-5-31,78,73,68,70,66,64,87,78,69,30.03,29.95,29.87,10,8,2,20,13,25,0.38,6,Rain-Thunderstorm,189